Volver al catálogo

STARLINK-33647

ActivoComunicacionesVLEO
NORAD 63411·PAYLOAD·🇺🇸 United States

Lanzado Mar 31, 2025 desde Cape Canaveral Space Force Station

Loading…

Próximos Pases (próximas 24 horas)

TLE

ActualizadoSource: CelesTrak SupGP

Época: Sep 15, 2026, 03:05 UTC

1 63411C 25065N   26258.12895833  .00059185  00000+0  21435-2 0  2587
2 63411  42.9996 124.7144 0001509 275.7149 155.4040 15.27551014    10

Sigue STARLINK-33647 en tiempo real con AllMySat

Download on the App Store